Location: ???? ?????????
(44.3677°N, 135.2344°E)
Time: 10:04:52
(UTC+00:00)

NOSS 3-2 (C) - Pass Details

Date: 09 August 2025
Orbit: 674 x 1535 km, 63.4° (Epoch: 13 November)

Event Time Altitude Azimuth Distance (km) Brightness Sun altitude
Rises 17:55:39 0° 314° (NW) 3,546 6.4 -18.5°
Reaches altitude 10° 17:59:11 10° 336° (NNW) 2,767 6.1 -18.0°
Maximum altitude 18:03:07 16° 13° (NNE) 2,520 6.4 -17.6°
Drops below altitude 10° 18:07:30 10° 49° (NE) 3,147 7.5 -17.0°
Sets 18:11:57 0° 69° (ENE) 4,297 8.2 -16.4°
